sat.trackr.live / text

‹ back to catalog

STARLINK-3290

NORAD 50828 · 2022-001AB

PAYLOAD ACTIVE UNKNOWN

§ Identity

Operator
Country
US
Launch date
2022-01-06
Launch site
AFETR
Launch vehicle
Mass (kg)
RCS (m²)

Purposes: comms

External: N2YO · Heavens-Above · Gunter

§ Orbital elements

Epoch: 2026-09-20T00:20:48.213888Z

Period
94.01 min
Inclination
53.1618°
Eccentricity
0.0000975
Mean motion
15.31697980 rev/d
Perigee alt
470.1 km
Apogee alt
471.4 km
Semi-major
6,848.9 km
B*
2.8560e-5
RAAN
6.0647°
Arg perigee
93.8353°
Mean anomaly
266.2760°
Rev number
25,973

§ Raw data

STARLINK-32901 50828U 22001AB  26263.01444692  .00000521  00000+0  28560-4 0  99992 50828  53.1618   6.0647 0000975  93.8353 266.2760 15.31697980259738

JSON: /api/v1/satellites/50828 · /tle

For live sub-satellite position, see the globe view (requires WebGL).

§ Visibility from observer

Set your observer location to see the next 7 days of passes ≥ 10°. The values pass through the URL so the page stays shareable.

No JS? Fill the form by hand. The geolocation button needs JavaScript.